Voltar ao catálogo

TRANSIT 20 DEB

AtivoPO
NORAD 44565·DEBRIS·🇺🇸 United States

Lançado Oct 30, 1973 de Vandenberg Space Force Base

Loading…

Próximas Passagens (próximas 24 horas)

TLE

AtualizadoSource: Space-Track

Época: Sep 14, 2026, 09:56 UTC

1 44565U 73081E   26257.41417671  .00000628  00000-0  60056-3 0  9992
2 44565  89.8612 251.2965 0138077 314.1063  44.8806 13.75530456350067

Acompanhe TRANSIT 20 DEB em tempo real com AllMySat

Download on the App Store